Laredo, TX

9:02 PM CDT on September 29, 2016 (GMT -0500)
Laredo International

Weather History for KLRD - December, 2012

Change the Weather History Date:

Sunday, December 23, 2012

  Actual Average Record
Temperature  
Mean Temperature 67 °F 56 °F  
Max Temperature 78 °F 67 °F 89 °F (1955)
Min Temperature 55 °F 46 °F 13 °F (1989)
Degree Days  
Heating Degree Days 0 10  
Month to date heating degree days 74 195  
Since 1 July heating degree days 122 310  
Cooling Degree Days 2 1  
Month to date cooling degree days 108 27  
Year to date cooling degree days 5175 4282  
Growing Degree Days 16 (Base 50)    
Moisture  
Dew Point 52 °F    
Average Humidity 65    
Maximum Humidity 96    
Minimum Humidity 36    
Precipitation  
Precipitation 0.00 in 0.03 in 2.29 in (2006)
Month to date precipitation 0.02 0.62  
Year to date precipitation 9.36 19.94  
Sea Level Pressure  
Sea Level Pressure 29.98 in    
Wind  
Wind Speed 4 mph (SSE)    
Max Wind Speed 14 mph    
Max Gust Speed 15 mph    
Visibility 10 miles    
Events      
T = Trace of Precipitation, MM = Missing Value Source: NWS Daily Summary

Daily Weather History Graph

Daily Weather History Graph

Search for Another Location

Airport or City:

Trip Planner

Search our weather history database for the weather conditions in past years. The results will help you decide how hot, cold, wet, or windy it might be!

Date:

Astronomy

Dec. 23, 2012 Rise Set
Actual Time 7:25 AM CST 5:49 PM CST
Civil Twilight 6:59 AM CST 6:15 PM CST
Nautical Twilight 6:30 AM CST 6:44 PM CST
Astronomical Twilight 6:01 AM CST 7:12 PM CST
Moon 2:31 PM CST (12/23) 3:20 AM CST (12/23)
Length of Visible Light 11h 15m
Length of Day
10h 24m
Waxing Gibbous, 82% of the Moon is Illuminated
Dec 23
Waxing Gibbous
Dec 28
Full
Jan 4
Last Quarter
Jan 11
New
Jan 18
First Quarter

Hourly Weather History & Observations

Time (CST) Temp. Dew Point Humidity Pressure Visibility Wind Dir Wind Speed Gust Speed Precip Events Conditions
12:56 AM 59.9 °F 55.9 °F 87% 30.06 in 10.0 mi SE 5.8 mph - N/A   Clear
1:56 AM 59.0 °F 55.9 °F 90% 30.04 in 10.0 mi SE 5.8 mph - N/A   Clear
2:56 AM 59.0 °F 55.9 °F 90% 30.03 in 10.0 mi SE 6.9 mph - N/A   Clear
3:56 AM 57.9 °F 55.9 °F 93% 30.04 in 10.0 mi East 5.8 mph - N/A   Clear
4:56 AM 56.8 °F 54.9 °F 93% 30.03 in 10.0 mi Calm Calm - N/A   Clear
5:56 AM 56.8 °F 54.9 °F 93% 30.03 in 10.0 mi Calm Calm - N/A   Clear
6:56 AM 55.9 °F 54.9 °F 96% 30.03 in 10.0 mi SSE 5.8 mph - N/A   Clear
7:56 AM 54.9 °F 52.9 °F 93% 30.04 in 9.0 mi South 5.8 mph - N/A   Clear
8:56 AM 59.9 °F 55.9 °F 87% 30.05 in 10.0 mi SSW 6.9 mph - N/A   Clear
9:56 AM 64.9 °F 55.9 °F 73% 30.05 in 10.0 mi SSW 8.1 mph - N/A   Clear
10:56 AM 66.9 °F 54.9 °F 65% 30.04 in 10.0 mi SSW 6.9 mph - N/A   Clear
11:56 AM 70.9 °F 54.0 °F 55% 30.01 in 10.0 mi South 3.5 mph - N/A   Clear
12:56 PM 72.9 °F 48.9 °F 43% 29.97 in 10.0 mi Calm Calm - N/A   Clear
1:56 PM 73.9 °F 48.9 °F 41% 29.94 in 10.0 mi Calm Calm - 0.00 in   Clear
2:56 PM 75.9 °F 48.9 °F 38% 29.91 in 10.0 mi Calm Calm - N/A   Clear
3:56 PM 77.0 °F 48.9 °F 37% 29.90 in 10.0 mi Calm Calm - 0.00 in   Clear
4:56 PM 75.9 °F 48.9 °F 38% 29.91 in 10.0 mi Calm Calm - N/A   Clear
5:56 PM 73.9 °F 48.9 °F 41% 29.91 in 10.0 mi Calm Calm - N/A   Clear
6:56 PM 70.0 °F 48.9 °F 47% 29.92 in 10.0 mi Calm Calm - N/A   Clear
7:56 PM 68.0 °F 48.9 °F 50% 29.93 in 10.0 mi South 8.1 mph - N/A   Clear
8:56 PM 70.9 °F 50.9 °F 49% 29.90 in 10.0 mi SSE 9.2 mph - N/A   Clear
9:56 PM 66.9 °F 50.0 °F 54% 29.94 in 10.0 mi NNW 4.6 mph - N/A   Clear
10:56 PM 65.8 °F 50.0 °F 57% 29.95 in 10.0 mi ENE 5.8 mph - N/A   Clear
11:56 PM 63.9 °F 50.0 °F 61% 29.94 in 10.0 mi ESE 4.6 mph - N/A   Clear